CW9825 Weather Reports


Display with metric or nautical units.
time (UTC)temp
F
wind
direction
speed
MPH
gust
MPH
rain 1hr
in
rain 24hr
in
rain mn
in
humidity
%
barometer
mb
20260509220053 56 333 12.0 21.0 0.00 0.00 0.17 39 1012.4
20260509215553 57 292 10.0 23.0 0.00 0.00 0.17 38 1012.4
20260509215053 57 345 12.0 23.0 0.00 0.00 0.17 38 1012.3
20260509214552 57 317 10.0 21.0 0.00 0.00 0.17 39 1012.2
20260509214052 58 355 12.0 22.0 0.00 0.00 0.17 39 1012.2
20260509213552 57 336 12.0 22.0 0.00 0.00 0.17 38 1012.3
20260509213052 57 317 9.0 17.0 0.00 0.00 0.17 39 1012.3
20260509212552 56 298 8.0 20.0 0.00 0.00 0.17 40 1012.3
20260509212051 57 317 12.0 20.0 0.00 0.00 0.17 38 1012.3
20260509211551 56 286 4.0 15.0 0.00 0.00 0.17 39 1012.2
20260509211051 56 273 8.0 18.0 0.00 0.00 0.17 39 1012.2
20260509210552 56 302 8.0 19.0 0.00 0.00 0.17 39 1012.3
20260509210057 56 331 12.0 19.0 0.00 0.00 0.17 40 1012.3
20260509205653 56 317 9.0 17.0 0.00 0.00 0.17 39 1012.2
20260509205054 57 360 11.0 18.0 0.00 0.00 0.17 39 1012.2
20260509204554 56 331 8.0 18.0 0.00 0.00 0.17 38 1012.2
20260509204050 56 318 10.0 19.0 0.00 0.00 0.17 39 1012.3
20260509203549 56 321 12.0 19.0 0.00 0.00 0.17 38 1012.3
20260509203049 57 334 8.0 22.0 0.00 0.00 0.17 40 1012.2
20260509202549 57 307 11.0 22.0 0.00 0.00 0.17 39 1012.2
20260509202048 58 323 10.0 22.0 0.00 0.00 0.17 39 1012.2
20260509201549 56 351 10.0 23.0 0.00 0.00 0.17 39 1012.2
20260509201047 57 242 11.0 23.0 0.00 0.00 0.17 41 1012.2
20260509200546 57 355 10.0 22.0 0.00 0.00 0.17 39 1012.1
20260509195545 56 311 9.0 25.0 0.00 0.00 0.17 41 1012.1
20260509195043 56 17 11.0 25.0 0.00 0.00 0.17 40 1012.1
20260509194545 56 355 10.0 18.0 0.00 0.00 0.17 42 1012.0
20260509194043 55 309 6.0 21.0 0.00 0.00 0.17 41 1012.0
20260509193542 55 275 10.0 21.0 0.00 0.00 0.17 42 1012.1
20260509193043 55 302 7.0 19.0 0.00 0.00 0.17 41 1012.0
20260509192541 56 306 10.0 19.0 0.00 0.00 0.17 42 1012.0
20260509192042 55 334 8.0 19.0 0.00 0.00 0.17 43 1012.0
20260509191541 55 346 10.0 18.0 0.00 0.00 0.17 44 1012.0
20260509191041 56 345 7.0 18.0 0.00 0.00 0.17 45 1012.0
20260509190540 56 192 7.0 19.0 0.00 0.00 0.17 44 1012.0
20260509190040 56 261 10.0 19.0 0.00 0.00 0.17 45 1012.0
20260509185539 55 322 6.0 20.0 0.00 0.00 0.17 46 1011.9
20260509185039 55 329 13.0 20.0 0.00 0.00 0.17 45 1012.0
20260509184554 55 319 8.0 26.0 0.00 0.00 0.17 44 1012.0
20260509184037 55 13 13.0 26.0 0.00 0.00 0.17 47 1012.0
20260509183536 54 340 7.0 20.0 0.00 0.00 0.17 48 1012.0
20260509183036 54 282 8.0 18.0 0.00 0.00 0.17 48 1012.1
20260509182536 54 300 7.0 18.0 0.00 0.00 0.17 49 1012.0
20260509182035 54 339 9.0 18.0 0.00 0.00 0.17 47 1011.9
20260509181533 54 294 10.0 20.0 0.00 0.00 0.17 49 1011.9
20260509181034 53 319 10.0 20.0 0.00 0.00 0.17 49 1011.9
20260509180533 53 344 11.0 19.0 0.00 0.00 0.17 49 1011.9
20260509180032 53 295 9.0 18.0 0.00 0.00 0.17 50 1011.9
20260509175531 53 313 9.0 18.0 0.00 0.00 0.17 50 1012.0
20260509175033 53 338 8.0 20.0 0.00 0.00 0.17 49 1011.9
20260509174535 53 302 12.0 22.0 0.00 0.00 0.17 49 1011.9
20260509174029 52 324 9.0 19.0 0.00 0.00 0.17 50 1011.9
20260509173529 52 327 6.0 21.0 0.00 0.00 0.17 50 1011.9
20260509173029 52 312 10.0 23.0 0.00 0.00 0.17 50 1011.9
20260509172527 52 338 9.0 23.0 0.00 0.00 0.17 51 1011.9
20260509172027 51 333 9.0 20.0 0.00 0.00 0.17 52 1011.8
20260509171531 51 322 10.0 20.0 0.00 0.00 0.17 51 1011.9
20260509171025 51 297 9.0 20.0 0.00 0.00 0.17 52 1011.9
20260509170525 51 311 10.0 20.0 0.00 0.00 0.17 51 1011.9
20260509170025 51 342 9.0 17.0 0.00 0.00 0.17 52 1011.8
20260509165527 51 262 4.0 16.0 0.00 0.00 0.17 53 1011.7
20260509165023 51 288 9.0 17.0 0.00 0.00 0.17 54 1011.7
20260509164523 51 300 10.0 17.0 0.00 0.00 0.17 54 1011.8
20260509164021 50 350 8.0 15.0 0.00 0.00 0.17 54 1011.7
20260509163529 51 304 7.0 20.0 0.00 0.00 0.17 54 1011.6
20260509163023 50 342 10.0 20.0 0.00 0.00 0.17 52 1011.6
20260509162519 50 347 9.0 18.0 0.00 0.00 0.17 53 1011.6
20260509162019 50 36 9.0 18.0 0.00 0.00 0.17 54 1011.5
20260509161517 50 302 11.0 18.0 0.00 0.00 0.17 51 1011.5
20260509161016 50 296 7.0 17.0 0.00 0.00 0.17 55 1011.4
20260509160516 49 355 10.0 17.0 0.00 0.00 0.17 53 1011.3
20260509160015 49 355 11.0 21.0 0.00 0.00 0.17 54 1011.5
20260509155514 50 324 11.0 18.0 0.00 0.00 0.17 53 1011.2
20260509155013 49 340 8.0 17.0 0.00 0.00 0.17 52 1011.2
20260509154515 49 350 7.0 20.0 0.00 0.00 0.17 54 1011.2
20260509154011 49 229 7.0 20.0 0.00 0.00 0.17 55 1011.1
20260509153509 49 355 9.0 18.0 0.00 0.00 0.17 54 1011.1
20260509153020 49 288 7.0 21.0 0.00 0.00 0.17 54 1011.1
20260509152507 49 318 10.0 21.0 0.00 0.00 0.17 54 1010.9
20260509152008 48 315 8.0 19.0 0.00 0.00 0.17 55 1010.8
20260509151504 48 333 7.0 18.0 0.00 0.00 0.17 56 1010.8
20260509151002 48 334 9.0 17.0 0.00 0.00 0.17 57 1010.8
20260509150501 48 325 11.0 17.0 0.00 0.00 0.17 57 1010.7
20260509150100 47 12 9.0 17.0 0.00 0.00 0.17 57 1010.7
20260509145559 47 335 9.0 17.0 0.00 0.00 0.17 56 1010.6
20260509145058 47 5 10.0 20.0 0.00 0.00 0.17 57 1010.6
20260509144608 47 347 10.0 20.0 0.00 0.00 0.17 56 1010.6
20260509144057 47 315 8.0 18.0 0.00 0.00 0.17 58 1010.5
20260509143553 47 327 6.0 19.0 0.00 0.00 0.17 61 1010.5
20260509143116 46 320 10.0 20.0 0.00 0.00 0.17 59 1010.3
20260509142550 46 332 12.0 20.0 0.00 0.00 0.17 59 1010.3
20260509142050 46 53 8.0 16.0 0.00 0.00 0.17 60 1010.1
20260509141547 45 315 8.0 23.0 0.00 0.00 0.17 61 1010.1
20260509141047 45 325 11.0 23.0 0.00 0.00 0.17 59 1010.2
20260509140547 45 278 7.0 18.0 0.00 0.00 0.17 62 1010.1
20260509140049 44 321 11.0 18.0 0.00 0.00 0.17 61 1010.1
20260509135546 45 318 7.0 17.0 0.00 0.00 0.17 61 1010.1
20260509135046 45 22 8.0 16.0 0.00 0.00 0.17 62 1010.0
20260509134600 44 5 6.0 22.0 0.00 0.00 0.17 62 1009.9
20260509134041 44 42 11.0 22.0 0.00 0.00 0.17 62 1009.8
20260509133540 44 347 8.0 21.0 0.00 0.00 0.17 63 1009.7
20260509133045 44 286 8.0 21.0 0.00 0.00 0.17 63 1009.7
20260509132538 44 346 8.0 24.0 0.00 0.00 0.17 64 1009.5
20260509132041 44 39 7.0 18.0 0.00 0.00 0.17 64 1009.5
20260509131538 44 355 9.0 21.0 0.00 0.00 0.17 64 1009.3
20260509131035 43 26 7.0 21.0 0.00 0.00 0.17 65 1009.3
20260509130539 43 304 8.0 19.0 0.00 0.00 0.17 64 1009.2
20260509130046 43 331 11.0 19.0 0.00 0.00 0.17 65 1009.2
20260509125535 43 329 11.0 18.0 0.00 0.00 0.17 65 1009.1
20260509125032 43 5 7.0 18.0 0.00 0.00 0.17 65 1009.0
20260509124535 43 337 8.0 16.0 0.00 0.00 0.17 66 1009.0
20260509124032 42 319 6.0 16.0 0.00 0.00 0.17 68 1008.8
20260509123531 42 336 7.0 16.0 0.00 0.00 0.17 67 1008.8
20260509123031 42 325 6.0 17.0 0.00 0.00 0.17 68 1008.7
20260509122530 42 19 10.0 17.0 0.00 0.00 0.17 69 1008.6
20260509122028 42 26 6.0 14.0 0.00 0.00 0.17 70 1008.5
20260509121540 41 349 7.0 16.0 0.00 0.00 0.17 70 1008.4
20260509121027 41 13 7.0 16.0 0.00 0.00 0.17 71 1008.3
20260509120529 41 323 8.0 16.0 0.00 0.00 0.00 71 1008.3
20260509120025 41 355 7.0 17.0 0.00 0.00 0.00 72 1008.1
20260509115523 41 325 8.0 15.0 0.00 0.00 0.00 73 1008.1
20260509115022 41 46 6.0 17.0 0.00 0.00 0.00 73 1008.0
20260509114531 41 10 8.0 17.0 0.00 0.00 0.00 74 1007.8
20260509114021 41 336 7.0 15.0 0.00 0.00 0.00 75 1007.8
20260509113520 41 316 7.0 15.0 0.00 0.00 0.00 76 1007.6
20260509113024 40 333 6.0 14.0 0.00 0.00 0.00 77 1007.6
20260509112517 40 336 7.0 15.0 0.00 0.00 0.00 78 1007.4
20260509112023 40 336 7.0 15.0 0.00 0.00 0.00 78 1007.3
20260509111515 40 321 6.0 12.0 0.00 0.00 0.00 79 1007.2
20260509111014 40 311 6.0 12.0 0.00 0.00 0.00 79 1007.1
20260509110512 40 338 6.0 12.0 0.00 0.00 0.00 79 1007.0
20260509110011 40 328 6.0 13.0 0.00 0.00 0.00 79 1006.9
20260509105512 40 320 8.0 15.0 0.00 0.00 0.00 79 1006.8
20260509105009 40 348 7.0 15.0 0.00 0.00 0.00 80 1006.7
20260509104511 40 329 8.0 15.0 0.00 0.00 0.00 81 1006.5
20260509104007 40 334 7.0 15.0 0.00 0.00 0.00 82 1006.3
20260509103507 41 304 8.0 14.0 0.00 0.00 0.00 82 1006.3
20260509103005 41 332 7.0 14.0 0.00 0.00 0.00 83 1006.3
20260509102505 41 338 7.0 14.0 0.00 0.00 0.00 83 1006.3
20260509102105 41 342 5.0 14.0 0.00 0.00 0.00 84 1006.2
20260509101504 41 309 7.0 14.0 0.00 0.00 0.00 87 1006.0
20260509101100 41 336 10.0 14.0 0.00 0.00 0.00 89 1005.9
20260509100559 41 267 4.0 10.0 0.00 0.00 0.00 90 1005.9
20260509100059 41 277 4.0 10.0 0.00 0.00 0.00 90 1005.7
20260509095558 41 317 3.0 8.0 0.00 0.00 0.00 90 1005.7
20260509095057 41 279 4.0 11.0 0.00 0.00 0.00 90 1005.7
20260509094603 42 304 5.0 11.0 0.00 0.00 0.00 90 1005.6
20260509094055 42 275 5.0 11.0 0.00 0.00 0.00 90 1005.5
20260509093554 42 326 5.0 11.0 0.00 0.00 0.00 90 1005.5
20260509093103 42 290 4.0 9.0 0.00 0.00 0.00 90 1005.4
20260509092551 42 313 3.0 9.0 0.00 0.00 0.00 89 1005.2
20260509092050 43 321 1.0 8.0 0.00 0.00 0.00 89 1005.2
20260509091548 43 296 2.0 8.0 0.00 0.00 0.00 89 1005.1
20260509091048 43 355 0.0 5.0 0.00 0.00 0.00 88 1005.0
20260509090547 43 325 1.0 8.0 0.00 0.00 0.00 87 1005.0
20260509090050 43 329 3.0 8.0 0.00 0.00 0.00 87 1004.9
20260509085545 43 293 2.0 6.0 0.00 0.00 0.00 87 1004.8
20260509085044 43 316 2.0 6.0 0.00 0.00 0.00 87 1004.7
20260509084546 43 326 4.0 6.0 0.00 0.00 0.00 87 1004.6
20260509084045 43 328 3.0 6.0 0.00 0.00 0.00 87 1004.4
20260509083543 44 326 3.0 5.0 0.00 0.00 0.00 87 1004.2
20260509083042 44 351 2.0 6.0 0.00 0.00 0.00 87 1004.2
20260509082540 44 338 3.0 6.0 0.00 0.00 0.00 86 1004.1
20260509082039 44 344 2.0 8.0 0.00 0.00 0.00 86 1004.0
20260509081542 44 343 3.0 8.0 0.00 0.00 0.00 86 1004.0
20260509081037 44 355 2.0 6.0 0.00 0.00 0.00 86 1004.0
20260509080537 45 9 3.0 8.0 0.00 0.00 0.00 86 1003.9
20260509080037 45 340 3.0 10.0 0.00 0.00 0.00 85 1003.9
20260509075535 45 355 4.0 11.0 0.00 0.00 0.00 85 1003.9
20260509075035 45 20 3.0 9.0 0.00 0.00 0.00 85 1003.9
20260509074543 45 22 4.0 9.0 0.00 0.00 0.00 86 1003.9
20260509074033 45 327 4.0 12.0 0.00 0.00 0.00 86 1003.9
20260509073533 45 347 4.0 10.0 0.00 0.00 0.00 86 1003.9
20260509073031 46 349 4.0 11.0 0.00 0.00 0.00 87 1003.9
20260509072530 46 12 4.0 12.0 0.00 0.00 0.00 87 1003.8
20260509072029 46 355 6.0 15.0 0.00 0.00 0.00 88 1003.9
20260509071527 46 59 7.0 15.0 0.00 0.00 0.00 89 1003.7
20260509071026 46 355 6.0 15.0 0.00 0.00 0.00 90 1003.8
20260509070525 46 314 5.0 15.0 0.00 0.00 0.00 90 1003.8
20260509070025 47 340 5.0 12.0 0.00 0.00 0.00 90 1003.7
20260509065525 47 355 7.0 12.0 0.00 0.00 0.00 90 1003.7
20260509065027 47 338 4.0 10.0 0.00 0.00 0.00 90 1003.7
20260509064523 47 346 4.0 12.0 0.00 0.00 0.00 90 1003.6
20260509064027 47 347 5.0 12.0 0.00 0.00 0.00 90 1003.6
20260509063522 47 325 4.0 9.0 0.00 0.00 0.00 90 1003.5
20260509063027 47 302 4.0 10.0 0.00 0.00 0.00 90 1003.5
20260509062521 47 338 4.0 10.0 0.00 0.00 0.00 90 1003.4
20260509062022 47 342 2.0 4.0 0.00 0.00 0.00 90 1003.3
20260509061518 47 336 1.0 4.0 0.00 0.00 0.00 90 1003.2
20260509061030 47 355 2.0 4.0 0.00 0.00 0.00 90 1002.9
20260509060517 47 333 0.0 4.0 0.00 0.00 0.00 90 1002.8
20260509060019 47 344 0.0 5.0 0.00 0.00 0.00 90 1002.9
20260509055517 47 342 2.0 5.0 0.00 0.00 0.00 90 1002.9
20260509055018 47 28 0.0 4.0 0.00 0.00 0.00 89 1002.8
20260509054516 47 360 1.0 6.0 0.00 0.00 0.00 89 1002.9
20260509054016 47 5 2.0 6.0 0.00 0.00 0.00 89 1002.6
20260509053516 47 11 3.0 6.0 0.00 0.00 0.00 89 1002.6
20260509053016 47 346 2.0 8.0 0.00 0.00 0.00 89 1002.8
20260509052514 47 360 3.0 8.0 0.00 0.00 0.00 89 1002.8
20260509052014 47 340 2.0 8.0 0.00 0.00 0.00 89 1002.8
20260509051514 47 15 2.0 8.0 0.00 0.00 0.00 89 1002.8
20260509051014 47 5 3.0 10.0 0.00 0.00 0.00 88 1002.7
20260509050512 47 342 4.0 11.0 0.00 0.00 0.00 88 1003.0
20260509050012 47 351 3.0 12.0 0.00 0.00 0.00 88 1003.0
20260509045513 47 340 6.0 12.0 0.00 0.00 0.00 88 1003.3
20260509045010 47 34 6.0 13.0 0.00 0.00 0.00 89 1003.0
20260509044510 47 351 5.0 14.0 0.00 0.00 0.00 88 1003.3
20260509044015 47 344 7.0 18.0 0.00 0.00 0.00 88 1003.4
20260509043510 48 348 8.0 20.0 0.00 0.00 0.00 88 1003.4
20260509043009 48 355 8.0 20.0 0.00 0.00 0.00 87 1003.6
20260509042512 48 331 12.0 19.0 0.00 0.00 0.00 87 1003.8
20260509042014 49 321 10.0 21.0 0.00 0.00 0.00 86 1003.9
20260509041508 49 323 12.0 26.0 0.00 0.00 0.00 85 1003.9
20260509041007 50 341 12.0 26.0 0.00 0.00 0.00 84 1003.8
20260509040508 50 346 13.0 22.0 0.00 0.00 0.00 85 1003.8
20260509040008 50 355 11.0 18.0 0.00 0.00 0.00 86 1003.5
20260509035508 50 338 10.0 21.0 0.00 0.00 0.00 86 1003.4
20260509035008 50 355 10.0 21.0 0.00 0.00 0.00 86 1003.5
20260509034507 50 344 9.0 21.0 0.00 0.00 0.00 85 1003.5
20260509034006 51 323 12.0 28.0 0.00 0.00 0.00 84 1003.6
20260509033506 51 348 13.0 28.0 0.00 0.00 0.00 82 1003.6
20260509033005 53 355 13.0 23.0 0.00 0.00 0.00 80 1003.7
20260509032504 54 331 13.0 21.0 0.00 0.00 0.00 75 1003.5
20260509032002 55 276 11.0 21.0 0.00 0.00 0.00 73 1003.1
20260509031502 56 340 7.0 25.0 0.00 0.00 0.00 69 1002.8
20260509031104 57 278 12.0 25.0 0.00 0.00 0.00 66 1002.7
20260509030600 59 287 10.0 22.0 0.00 0.00 0.00 60 1002.4
20260509030101 60 296 10.0 22.0 0.00 0.00 0.00 52 1002.2
20260509025604 61 308 5.0 11.0 0.00 0.00 0.00 49 1001.8
20260509025058 61 304 4.0 10.0 0.00 0.00 0.00 47 1001.5
20260509024600 61 317 1.0 5.0 0.00 0.00 0.00 46 1000.9
20260509024057 61 279 3.0 5.0 0.00 0.00 0.00 45 1000.8
20260509023558 61 307 0.0 1.0 0.00 0.00 0.00 44 1000.5
20260509023109 61 307 0.0 0.0 0.00 0.00 0.00 44 1000.3
20260509022600 61 307 0.0 0.0 0.00 0.00 0.00 43 1000.1
20260509022056 61 307 0.0 1.0 0.00 0.00 0.00 43 1000.1
20260509021555 61 307 0.0 1.0 0.00 0.00 0.00 43 1000.2
20260509021054 61 307 0.0 1.0 0.00 0.00 0.00 42 1000.4
20260509020553 61 307 0.0 4.0 0.00 0.00 0.00 42 1000.4
20260509020059 61 307 0.0 4.0 0.00 0.00 0.00 42 1000.5
20260509015553 61 293 1.0 3.0 0.00 0.00 0.00 42 1000.7
20260509015055 62 292 0.0 3.0 0.00 0.00 0.00 42 1000.7
20260509014553 62 296 0.0 6.0 0.00 0.00 0.00 41 1000.8
20260509014051 62 296 1.0 8.0 0.00 0.00 0.00 40 1000.8
20260509013551 62 297 1.0 8.0 0.00 0.00 0.00 40 1000.9
20260509013055 63 317 1.0 10.0 0.00 0.00 0.00 40 1000.9
20260509012550 63 295 3.0 10.0 0.00 0.00 0.00 40 1000.9
20260509012050 63 338 3.0 10.0 0.00 0.00 0.00 39 1001.0
20260509011556 63 313 4.0 10.0 0.00 0.00 0.00 39 1001.0
20260509011049 64 284 3.0 14.0 0.00 0.00 0.00 39 1001.1
20260509010549 64 309 7.0 14.0 0.00 0.00 0.00 38 1001.0
20260509010052 64 331 6.0 18.0 0.00 0.00 0.00 38 1001.0
20260509005549 64 247 9.0 18.0 0.00 0.00 0.00 37 1001.0
20260509005047 65 324 9.0 16.0 0.00 0.00 0.00 37 1001.1
20260509004547 65 304 10.0 16.0 0.00 0.00 0.00 38 1001.2
20260509004048 65 320 5.0 16.0 0.00 0.00 0.00 38 1001.4
20260509003548 65 325 7.0 16.0 0.00 0.00 0.00 37 1001.4
20260509003047 65 329 7.0 12.0 0.00 0.00 0.00 37 1001.4
20260509002546 65 281 6.0 16.0 0.00 0.00 0.00 37 1001.4
20260509002046 65 318 7.0 16.0 0.00 0.00 0.00 37 1001.5
20260509001546 66 346 9.0 16.0 0.00 0.00 0.00 36 1001.5
20260509001046 66 281 7.0 17.0 0.00 0.00 0.00 36 1001.4
20260509000546 66 315 9.0 19.0 0.00 0.00 0.00 35 1001.6
20260509000044 66 292 7.0 21.0 0.00 0.00 0.00 36 1001.5
20260508235544 66 302 12.0 21.0 0.00 0.00 0.00 35 1001.5
20260508235043 66 337 11.0 21.0 0.00 0.00 0.00 35 1001.6
20260508234543 66 346 6.0 21.0 0.00 0.00 0.00 35 1001.6
20260508234046 66 290 10.0 21.0 0.00 0.00 0.00 35 1001.6
20260508233542 66 275 10.0 19.0 0.00 0.00 0.00 34 1001.7
20260508233042 66 261 5.0 18.0 0.00 0.00 0.00 35 1001.8
20260508232540 66 315 5.0 30.0 0.00 0.00 0.00 35 1001.9
20260508232040 66 327 10.0 30.0 0.00 0.00 0.00 35 1002.0
20260508231540 66 306 9.0 19.0 0.00 0.00 0.00 34 1002.1
20260508231039 66 329 9.0 19.0 0.00 0.00 0.00 34 1002.0
20260508230538 66 261 9.0 20.0 0.00 0.00 0.00 34 1002.1
20260508230043 65 254 10.0 20.0 0.00 0.00 0.00 35 1002.1
20260508225538 65 325 9.0 18.0 0.00 0.00 0.00 35 1002.3
20260508225038 66 314 6.0 17.0 0.00 0.00 0.00 34 1002.3
20260508224538 66 355 5.0 21.0 0.00 0.00 0.00 34 1002.3
20260508224038 66 319 10.0 21.0 0.00 0.00 0.00 34 1002.3
20260508223537 66 227 8.0 20.0 0.00 0.00 0.00 34 1002.3
20260508223036 66 329 10.0 24.0 0.00 0.00 0.00 34 1002.5
20260508222535 66 298 8.0 25.0 0.00 0.00 0.00 33 1002.4
20260508222035 66 274 16.0 25.0 0.00 0.00 0.00 33 1002.7
20260508221535 65 328 11.0 22.0 0.00 0.00 0.00 33 1002.6
20260508221034 65 296 7.0 23.0 0.00 0.00 0.00 33 1002.7
20260508220533 65 338 12.0 23.0 0.00 0.00 0.00 34 1002.7